Theta_e
323 322 322 322 323 323 324 324 324 325 325 324 324 324 325 325 325 315 308 319 329 351 347 323 324 329 331 330 332 331 313 312 315 318 320 326 325 328 332 329 332 330 329 335 341
322 322 322 322 323 324 324 323 323 324 324 324 323 324 325 326 318 312 327 347 356 349 320 319 319 320 318 321 323 317 310 314 324 325 322 326 325 324 327 328 329 326 332 341 343
323 323 323 323 324 324 324 324 324 323 324 324 324 324 325 324 304 305 346 355 359 338 323 321 319 320 316 319 319 317 312 319 326 326 326 324 323 329 325 322 323 323 332 338 338
323 323 323 323 323 324 324 324 324 323 323 323 324 325 326 315 294 312 349 359 359 328 319 319 319 316 315 315 320 314 320 326 329 330 326 323 327 325 329 328 327 327 335 337 336
323 323 323 323 323 323 323 323 323 323 323 324 324 325 315 301 304 312 351 341 327 321 317 317 316 316 313 316 318 315 317 325 329 327 327 328 325 326 330 331 328 328 331 335 335
323 322 322 322 322 323 323 322 322 322 323 324 325 326 313 297 308 314 316 321 321 318 318 317 317 319 315 315 313 318 317 326 327 325 326 325 327 330 331 333 326 326 324 330 334
322 322 322 322 322 322 322 321 321 322 323 324 325 324 310 304 312 313 312 311 319 318 315 319 320 315 314 311 319 318 314 323 325 325 324 326 321 325 331 332 325 325 325 325 327
322 322 321 321 321 321 320 320 320 322 324 324 326 315 300 311 315 319 311 312 311 310 313 316 315 313 311 313 315 313 312 306 322 324 325 319 310 326 328 327 326 327 329 327 327
321 321 321 320 320 319 317 317 321 326 325 326 310 306 302 319 312 315 313 310 308 306 308 319 314 310 312 308 305 308 303 307 315 324 324 318 311 325 325 322 327 327 328 331 331
320 320 319 319 318 316 316 318 320 321 323 325 320 300 303 305 311 311 309 310 306 305 308 309 308 304 304 304 298 302 303 307 309 319 321 318 314 324 326 322 326 330 329 331 330
320 319 318 318 317 316 314 310 309 306 310 306 306 302 305 310 313 310 308 306 303 302 296 301 301 299 304 307 309 308 305 306 311 317 315 315 314 320 327 322 325 326 329 330 329
319 318 318 317 316 315 310 309 310 311 304 311 311 309 310 311 308 310 306 301 298 295 298 298 296 303 307 309 308 306 305 304 312 318 312 313 313 322 326 323 324 323 327 328 328
318 318 317 316 315 312 310 310 315 312 302 306 308 308 309 311 307 308 304 299 296 294 295 294 300 307 306 305 305 302 301 305 309 314 313 310 308 315 323 325 325 325 327 327 328
318 317 316 313 310 310 311 314 315 313 295 300 301 307 309 310 304 312 304 302 297 296 296 295 301 302 300 303 304 298 308 310 312 307 301 307 298 306 316 318 321 323 322 324 328
317 317 314 313 309 308 313 315 316 307 287 305 302 310 306 305 301 302 305 303 298 298 296 295 300 300 300 303 307 303 310 308 312 304 301 304 297 300 316 315 318 321 322 324 329
316 316 314 310 308 311 314 314 308 295 288 302 303 302 302 300 303 304 302 303 302 298 296 298 302 302 302 305 307 309 308 306 303 301 294 300 299 299 305 311 320 323 323 324 330
314 313 312 314 306 313 313 307 294 290 303 301 299 299 297 297 300 302 299 294 294 289 289 295 297 299 304 298 302 306 300 294 294 294 294 295 298 302 309 314 320 324 325 324 326
311 310 311 313 311 313 308 301 290 299 301 304 304 301 297 297 296 298 296 295 295 293 289 289 290 298 303 300 299 300 300 295 290 292 294 296 296 302 310 316 318 325 328 327 326
310 306 307 311 314 311 303 293 292 298 304 303 301 297 295 298 298 296 293 293 296 295 292 289 291 301 304 305 304 298 299 303 296 294 293 295 301 308 312 314 316 320 325 326 327
309 309 307 315 316 307 299 292 297 304 305 302 296 299 295 297 297 293 294 297 298 298 296 294 290 296 300 302 302 300 304 298 295 290 289 294 297 300 309 311 315 318 323 325 328
307 306 313 316 311 303 292 294 302 306 305 301 299 298 298 297 297 293 294 298 300 298 297 293 291 293 297 296 296 297 298 297 297 295 292 290 296 307 308 313 317 322 326 328 330
303 303 312 315 303 298 297 300 304 304 306 305 302 301 299 300 296 295 297 299 307 299 296 295 290 289 294 298 300 297 298 300 295 293 293 294 297 311 313 317 321 324 327 331 334
304 302 316 312 298 298 301 305 307 306 305 304 303 304 303 297 295 298 303 309 316 299 297 297 290 287 291 294 299 298 300 299 297 297 295 295 297 311 311 315 321 323 327 328 333
305 302 307 307 303 302 301 303 303 310 307 307 305 304 300 297 297 298 308 314 316 313 320 304 289 291 291 292 299 298 302 301 298 294 295 298 301 307 310 315 320 322 325 327 330
305 302 306 300 302 304 304 305 306 306 308 310 306 309 303 293 298 302 308 308 311 316 308 299 289 288 292 295 302 304 302 303 300 299 298 300 302 306 311 315 321 323 326 327 327
301 304 307 303 304 303 302 303 306 310 308 308 308 312 308 295 297 297 306 304 303 309 305 304 296 291 291 300 303 302 304 304 304 304 302 300 303 309 312 315 318 322 326 326 327
313 308 306 302 303 300 301 306 309 311 312 314 313 309 308 309 312 309 308 307 307 306 304 303 301 298 295 296 296 292 298 300 304 304 305 301 306 312 311 316 319 320 325 326 324
Wind_Speed
18 18 19 19 20 20 20 20 19 20 20 19 19 18 18 19 20 2 7 10 6 6 3 2 6 5 2 2 5 3 4 4 5 6 4 3 4 3 2 4 1 2 7 15 16
18 18 19 19 19 19 19 19 19 20 20 20 18 17 16 16 4 8 11 9 6 2 4 7 7 7 2 2 2 4 5 10 9 6 5 7 3 6 5 6 2 10 17 20 20
16 17 16 18 19 19 19 19 19 20 20 20 18 16 16 11 5 9 1 6 7 4 2 2 3 3 4 3 1 4 6 7 6 4 6 6 5 4 10 2 7 20 20 20 19
17 17 17 19 20 20 20 20 20 19 19 18 17 16 16 2 4 4 7 7 5 5 1 2 4 4 5 6 3 4 2 6 6 7 4 5 7 5 5 8 16 22 23 21 20
17 17 17 18 19 19 19 20 20 18 17 16 14 13 5 3 12 7 8 5 3 4 2 1 3 2 4 6 10 3 4 2 8 7 6 4 0 4 2 9 15 21 21 21 18
16 17 18 19 19 20 20 20 21 19 16 14 11 9 1 3 6 4 8 6 1 2 1 3 0 3 5 4 1 6 6 8 7 8 7 6 2 2 5 11 16 18 19 18 19
16 17 18 19 20 21 22 21 22 21 17 10 6 3 0 17 2 9 6 3 4 3 3 3 3 2 4 7 4 7 6 7 1 4 4 5 5 4 2 13 16 13 12 15 16
17 18 19 20 21 22 23 23 24 21 12 6 4 2 9 4 3 11 2 5 3 5 4 7 4 4 3 3 8 6 6 2 6 7 6 3 8 5 1 8 10 11 9 10 9
17 19 20 21 22 23 25 27 24 10 5 6 2 2 11 8 2 7 6 4 3 1 3 4 2 1 6 4 6 7 3 5 1 10 3 5 6 7 7 3 6 7 8 7 6
18 19 20 22 22 25 29 23 10 2 3 4 3 2 6 1 5 4 3 3 3 3 7 5 6 4 4 5 3 4 6 7 3 10 7 9 14 4 13 6 9 8 7 7 8
17 19 21 22 23 22 15 4 6 4 1 6 7 6 8 8 5 3 1 4 4 7 2 4 4 5 8 5 5 3 3 5 11 8 11 16 15 9 12 5 8 7 7 7 8
17 19 21 24 25 23 0 4 4 2 12 11 14 8 4 5 6 5 3 5 4 4 2 6 4 8 2 1 3 4 4 9 11 2 3 8 10 2 11 8 5 9 10 7 4
17 19 20 24 29 2 2 5 2 3 4 9 6 6 6 9 8 8 8 5 4 4 3 6 6 3 3 2 4 3 4 5 8 6 2 5 6 3 3 3 6 7 4 5 8
17 18 18 27 4 5 5 4 6 3 5 8 4 7 5 6 5 8 7 7 2 8 7 5 6 3 1 4 6 6 5 9 11 5 1 6 6 4 4 7 7 11 8 9 8
18 17 12 9 6 4 5 10 10 4 3 0 3 2 2 9 2 1 5 6 8 6 8 8 2 4 5 9 6 12 4 10 7 3 5 3 2 6 6 8 12 10 11 10 5
17 16 13 1 3 9 10 11 3 7 5 4 3 4 5 1 3 4 4 5 4 4 3 8 2 5 7 4 6 6 3 5 4 5 3 5 3 7 7 7 8 10 10 11 7
19 17 11 4 6 1 6 4 6 4 6 7 4 2 2 4 1 4 4 3 6 4 5 5 7 4 4 4 3 4 6 4 4 3 7 1 2 10 4 8 9 18 16 12 6
20 23 5 6 4 3 3 6 2 2 5 4 4 4 5 4 4 3 6 5 4 4 4 5 7 7 4 9 9 8 10 8 7 5 6 3 5 6 3 9 9 14 20 16 11
22 3 4 5 9 2 5 4 7 5 4 8 9 5 3 1 4 3 5 5 9 10 9 5 6 1 3 4 8 3 3 6 8 4 4 4 7 10 6 3 7 5 9 15 15
5 5 5 2 10 4 6 4 4 4 5 3 3 3 3 4 2 4 6 5 6 11 6 5 3 5 2 3 1 6 6 4 3 5 3 5 4 7 2 5 7 8 11 9 3
2 4 3 5 2 6 4 7 6 6 3 3 1 3 6 4 3 3 5 6 6 1 7 7 4 6 3 3 5 2 1 5 5 5 7 3 8 9 7 7 10 8 9 14 16
4 3 2 2 5 1 3 5 4 5 3 8 3 8 6 5 4 3 3 5 9 8 11 9 6 5 11 5 1 2 6 8 7 5 2 4 9 3 8 8 8 13 15 10 11
3 3 4 3 2 1 4 4 4 4 4 3 4 4 4 2 3 2 1 5 9 3 9 10 3 3 12 9 4 3 4 5 4 4 6 7 7 3 3 5 8 12 9 10 10
3 2 4 3 1 3 3 6 4 4 6 5 8 4 2 4 3 2 2 3 6 6 7 6 4 9 11 10 4 4 4 3 8 4 4 7 9 6 7 8 8 4 3 7 9
1 1 2 2 2 3 2 3 6 5 2 6 6 5 2 4 2 3 1 4 3 6 4 5 2 1 6 6 6 6 5 4 3 6 6 6 9 8 12 14 14 6 8 7 9
2 3 5 2 3 4 2 1 4 6 2 5 4 15 4 4 5 6 4 3 2 6 3 4 1 3 3 5 5 3 4 6 6 5 5 2 8 8 6 8 5 8 11 14 12
2 2 2 3 4 2 1 4 4 7 4 4 5 5 6 4 8 6 2 4 3 1 1 3 3 3 5 5 1 4 8 5 6 3 6 7 9 4 4 14 17 16 16 19 17
Wind_Direction
357 354 351 351 349 348 346 344 337 336 333 329 326 326 326 327 317 282 260 223 172 113 183 246 192 221 98 221 182 153 85 221 252 156 225 196 162 76 110 146 123 165 125 143 137
354 351 347 344 338 337 336 334 336 330 332 330 326 324 325 333 323 277 241 241 222 98 7 358 337 356 36 285 247 129 145 216 213 163 184 176 122 156 156 156 125 85 101 124 134
346 343 340 336 336 333 328 325 324 326 328 328 325 323 321 329 331 253 350 269 148 99 162 273 312 21 9 355 266 221 224 189 190 133 159 137 137 157 123 24 172 144 141 143 149
341 338 333 332 331 329 325 322 320 322 324 324 323 322 318 273 248 262 357 69 123 139 170 314 17 19 7 337 286 307 276 149 132 144 125 157 118 141 234 187 157 149 151 151 162
335 332 329 327 326 324 322 318 315 316 319 319 320 324 323 13 253 289 357 19 109 142 216 8 22 51 1 296 329 137 356 31 107 124 102 112 228 119 170 148 153 150 149 163 167
332 329 327 326 324 322 320 316 311 310 314 310 313 319 328 264 252 333 6 337 102 325 284 122 261 223 258 282 327 298 295 118 131 162 138 141 173 227 235 165 156 164 162 165 175
330 328 326 324 323 321 318 312 308 308 307 292 286 281 216 237 285 322 323 234 166 191 299 220 207 104 314 317 309 287 98 74 223 174 100 135 337 226 9 163 162 173 182 165 181
328 327 326 325 322 319 317 312 311 306 288 253 228 185 247 245 280 301 220 301 247 223 195 254 182 202 177 298 355 359 82 169 197 179 168 112 257 257 177 166 167 176 195 195 179
326 326 326 325 323 322 319 316 311 321 162 158 126 150 266 304 262 281 168 229 319 335 259 255 74 114 26 41 9 2 348 2 119 216 103 193 245 223 181 277 177 210 207 204 219
327 327 324 326 321 325 320 306 287 316 176 192 250 356 289 33 292 282 243 165 87 9 10 45 52 72 46 66 247 322 333 329 175 218 214 202 266 211 194 216 193 214 218 232 216
327 327 325 322 322 320 334 3 13 353 33 239 236 245 291 281 298 306 166 92 67 63 158 353 85 193 221 175 190 258 265 297 291 193 169 203 243 221 188 216 204 215 246 228 225
325 326 324 325 320 323 15 56 92 102 297 243 248 247 262 73 317 301 112 129 118 197 113 19 217 218 248 208 253 264 329 300 275 196 151 161 240 193 190 224 204 209 231 226 225
323 325 327 326 320 3 262 222 26 318 240 292 209 218 203 138 207 265 138 131 139 173 146 161 236 118 164 273 275 286 221 274 253 333 21 111 327 168 229 213 195 225 176 217 217
321 325 333 330 45 332 281 298 309 225 41 278 257 265 139 143 264 219 164 140 66 189 161 222 259 200 226 253 141 277 180 245 268 71 348 76 269 247 189 214 218 217 200 220 213
319 321 334 328 289 307 291 327 321 74 352 309 216 70 171 149 237 318 185 53 168 188 103 245 241 183 191 229 152 243 189 249 245 66 82 303 108 267 127 218 223 221 232 213 202
314 313 332 328 262 248 319 307 42 43 263 348 119 172 118 296 326 23 80 59 155 145 6 225 252 158 210 269 198 271 252 40 34 107 52 234 152 278 199 202 199 223 228 233 189
308 301 304 252 238 97 315 28 46 143 320 351 17 195 104 177 234 142 180 146 170 116 269 320 267 242 183 311 353 129 67 334 356 13 230 95 273 241 211 206 196 198 209 222 153
310 308 247 206 238 275 9 54 150 265 269 324 313 270 165 151 251 180 142 209 227 119 108 175 328 170 168 180 206 194 159 160 209 206 257 29 234 255 155 229 219 189 197 198 191
313 316 277 256 184 147 78 82 209 218 330 327 334 63 354 203 127 123 207 230 207 167 175 152 267 264 166 159 144 243 172 188 104 19 71 246 297 305 104 348 249 157 165 201 204
321 330 271 131 163 90 75 231 251 244 340 332 28 59 12 291 157 156 204 219 228 182 152 218 299 227 254 146 259 158 170 75 359 132 218 283 257 234 278 224 241 168 193 212 157
346 5 288 164 159 54 148 231 268 255 327 332 296 283 242 288 203 205 230 281 204 179 136 140 122 256 86 171 223 38 341 30 120 127 162 210 259 216 181 204 195 192 194 179 189
336 39 330 125 59 62 164 201 278 280 168 254 211 209 224 258 246 250 233 209 310 159 173 203 149 230 223 256 241 189 224 158 135 221 170 160 269 43 173 168 211 178 191 156 91
1 283 318 57 118 288 291 281 244 269 269 248 269 233 214 239 320 192 267 257 332 160 175 172 259 319 334 352 14 208 181 147 132 92 189 142 262 51 194 182 196 182 193 128 124
338 52 324 78 215 117 0 292 291 269 260 220 249 266 282 196 241 253 288 305 345 345 32 102 127 166 214 206 165 277 190 170 125 114 190 223 238 210 204 187 187 211 121 146 152
10 330 173 301 342 327 192 294 301 332 258 13 344 343 252 269 166 223 251 316 300 326 55 90 158 327 225 209 178 195 240 172 153 178 158 242 203 210 196 190 183 158 141 169 172
79 18 350 280 309 335 41 9 324 323 267 324 3 318 315 183 226 234 182 205 254 340 59 1 144 76 269 238 256 286 270 169 207 198 246 227 284 204 144 112 142 180 178 190 203
7 348 106 292 342 61 200 307 317 325 297 325 316 313 10 4 295 266 105 133 182 323 19 79 106 70 286 350 303 4 246 234 228 179 151 184 231 121 160 183 185 178 191 198 206